| time (UTC) | temp F | wind direction | speed MPH | gust MPH | rain 1hr in | rain 24hr in | rain mn in | humidity % | barometer mb |
| 20260831200312 | 71 | 338 | 0.0 | 0.0 | 0.00 | 0.00 | 0.00 | ||
| 20260831195911 | 72 | 338 | 0.0 | 0.0 | 0.00 | 0.00 | 0.00 | ||
| 20260831195508 | 71 | 338 | 0.0 | 0.0 | 0.00 | 0.00 | 0.00 | ||
| 20260831195100 | 71 | 338 | 0.0 | 0.0 | 0.00 | 0.00 | 0.00 | ||
| 20260831194658 | 71 | 338 | 0.0 | 1.0 | 0.00 | 0.00 | 0.00 | ||
| 20260831194257 | 71 | 338 | 0.0 | 0.0 | 0.00 | 0.00 | 0.00 | ||
| 20260831193856 | 71 | 338 | 0.0 | 1.0 | 0.00 | 0.00 | 0.00 | ||
| 20260831193453 | 71 | 338 | 0.0 | 2.0 | 0.00 | 0.00 | 0.00 | ||
| 20260831193052 | 71 | 338 | 1.0 | 2.0 | 0.00 | 0.00 | 0.00 | ||
| 20260831192249 | 71 | 338 | 2.0 | 3.0 | 0.00 | 0.00 | 0.00 | ||
| 20260831191847 | 71 | 338 | 1.0 | 3.0 | 0.00 | 0.00 | 0.00 | ||
| 20260831191445 | 71 | 338 | 1.0 | 2.0 | 0.00 | 0.00 | 0.00 | ||
| 20260831191037 | 71 | 338 | 1.0 | 2.0 | 0.00 | 0.00 | 0.00 | ||
| 20260831190635 | 71 | 333 | 1.0 | 3.0 | 0.00 | 0.00 | 0.00 | ||
| 20260831190233 | 72 | 315 | 0.0 | 2.0 | 0.00 | 0.00 | 0.00 | ||
| 20260831185431 | 72 | 292 | 0.0 | 2.0 | 0.00 | 0.00 | 0.00 | ||
| 20260831185029 | 73 | 293 | 1.0 | 4.0 | 0.00 | 0.00 | 0.00 | ||
| 20260831184626 | 73 | 292 | 1.0 | 3.0 | 0.00 | 0.00 | 0.00 | ||
| 20260831184226 | 73 | 292 | 1.0 | 3.0 | 0.00 | 0.00 | 0.00 | ||
| 20260831183825 | 73 | 295 | 3.0 | 7.0 | 0.00 | 0.00 | 0.00 | ||
| 20260831183423 | 73 | 292 | 2.0 | 5.0 | 0.00 | 0.00 | 0.00 | ||
| 20260831183015 | 73 | 292 | 2.0 | 6.0 | 0.00 | 0.00 | 0.00 | ||
| 20260831182612 | 73 | 288 | 3.0 | 6.0 | 0.00 | 0.00 | 0.00 | ||
| 20260831182211 | 73 | 292 | 1.0 | 3.0 | 0.00 | 0.00 | 0.00 | ||
| 20260831181810 | 73 | 292 | 2.0 | 3.0 | 0.00 | 0.00 | 0.00 | ||
| 20260831181408 | 73 | 292 | 2.0 | 4.0 | 0.00 | 0.00 | 0.00 | ||
| 20260831181006 | 73 | 292 | 2.0 | 3.0 | 0.00 | 0.00 | 0.00 | ||
| 20260831180604 | 74 | 270 | 2.0 | 2.0 | 0.00 | 0.00 | 0.00 | ||
| 20260831180203 | 74 | 270 | 2.0 | 2.0 | 0.00 | 0.00 | 0.00 | ||
| 20260831175802 | 74 | 270 | 2.0 | 3.0 | 0.00 | 0.00 | 0.00 | ||
| 20260831175359 | 74 | 270 | 2.0 | 3.0 | 0.00 | 0.00 | 0.00 | ||
| 20260831174951 | 75 | 270 | 2.0 | 3.0 | 0.00 | 0.00 | 0.00 | ||
| 20260831174549 | 74 | 270 | 3.0 | 5.0 | 0.00 | 0.00 | 0.00 | ||
| 20260831174148 | 75 | 270 | 4.0 | 5.0 | 0.00 | 0.00 | 0.00 | ||
| 20260831173746 | 75 | 270 | 4.0 | 6.0 | 0.00 | 0.00 | 0.00 | ||
| 20260831173344 | 75 | 270 | 3.0 | 6.0 | 0.00 | 0.00 | 0.00 | ||
| 20260831172943 | 75 | 270 | 3.0 | 4.0 | 0.00 | 0.00 | 0.00 | ||
| 20260831172542 | 75 | 270 | 3.0 | 6.0 | 0.00 | 0.00 | 0.00 | ||
| 20260831172140 | 76 | 270 | 4.0 | 5.0 | 0.00 | 0.00 | 0.00 | ||
| 20260831171738 | 76 | 272 | 4.0 | 6.0 | 0.00 | 0.00 | 0.00 | ||
| 20260831171336 | 76 | 269 | 5.0 | 7.0 | 0.00 | 0.00 | 0.00 | ||
| 20260831170928 | 76 | 272 | 4.0 | 6.0 | 0.00 | 0.00 | 0.00 | ||
| 20260831170527 | 77 | 265 | 6.0 | 9.0 | 0.00 | 0.00 | 0.00 | ||
| 20260831170124 | 77 | 256 | 4.0 | 7.0 | 0.00 | 0.00 | 0.00 | ||
| 20260831165724 | 78 | 244 | 5.0 | 8.0 | 0.00 | 0.00 | 0.00 | ||
| 20260831165322 | 79 | 254 | 5.0 | 10.0 | 0.00 | 0.00 | 0.00 | ||
| 20260831164921 | 82 | 262 | 3.0 | 7.0 | 0.00 | 0.00 | 0.00 | ||
| 20260831164518 | 82 | 249 | 3.0 | 5.0 | 0.00 | 0.00 | 0.00 | ||
| 20260831164117 | 82 | 248 | 4.0 | 8.0 | 0.00 | 0.00 | 0.00 | ||
| 20260831163716 | 83 | 268 | 3.0 | 6.0 | 0.00 | 0.00 | 0.00 | ||
| 20260831163314 | 82 | 256 | 5.0 | 8.0 | 0.00 | 0.00 | 0.00 | ||
| 20260831162905 | 82 | 254 | 5.0 | 9.0 | 0.00 | 0.00 | 0.00 | ||
| 20260831162502 | 81 | 261 | 5.0 | 8.0 | 0.00 | 0.00 | 0.00 | ||
| 20260831162101 | 77 | 266 | 4.0 | 7.0 | 0.00 | 0.00 | 0.00 | ||
| 20260831161700 | 78 | 254 | 5.0 | 7.0 | 0.00 | 0.00 | 0.00 | ||
| 20260831161258 | 79 | 255 | 4.0 | 6.0 | 0.00 | 0.00 | 0.00 | ||
| 20260831160856 | 78 | 252 | 5.0 | 8.0 | 0.00 | 0.00 | 0.00 | ||
| 20260831160453 | 78 | 265 | 4.0 | 6.0 | 0.00 | 0.00 | 0.00 | ||
| 20260831160052 | 78 | 255 | 5.0 | 7.0 | 0.00 | 0.00 | 0.00 | ||
| 20260831155651 | 78 | 265 | 4.0 | 6.0 | 0.00 | 0.00 | 0.00 | ||
| 20260831155248 | 78 | 258 | 7.0 | 9.0 | 0.00 | 0.00 | 0.00 | ||
| 20260831154840 | 78 | 255 | 5.0 | 8.0 | 0.00 | 0.00 | 0.00 | ||
| 20260831154438 | 78 | 259 | 6.0 | 12.0 | 0.00 | 0.00 | 0.00 | ||
| 20260831154037 | 78 | 261 | 5.0 | 8.0 | 0.00 | 0.00 | 0.00 | ||
| 20260831153635 | 79 | 236 | 5.0 | 12.0 | 0.00 | 0.00 | 0.00 | ||
| 20260831153233 | 79 | 258 | 9.0 | 12.0 | 0.00 | 0.00 | 0.00 | ||
| 20260831152832 | 79 | 259 | 9.0 | 12.0 | 0.00 | 0.00 | 0.00 | ||
| 20260831152430 | 79 | 255 | 9.0 | 13.0 | 0.00 | 0.00 | 0.00 | ||
| 20260831152028 | 80 | 272 | 6.0 | 10.0 | 0.00 | 0.00 | 0.00 | ||
| 20260831151627 | 79 | 232 | 8.0 | 11.0 | 0.00 | 0.00 | 0.00 | ||
| 20260831151225 | 79 | 236 | 7.0 | 13.0 | 0.00 | 0.00 | 0.00 | ||
| 20260831150818 | 78 | 235 | 10.0 | 14.0 | 0.00 | 0.00 | 0.00 | ||
| 20260831150416 | 78 | 230 | 8.0 | 10.0 | 0.00 | 0.00 | 0.00 | ||
| 20260831150014 | 78 | 243 | 8.0 | 12.0 | 0.00 | 0.00 | 0.00 | ||
| 20260831145613 | 78 | 260 | 9.0 | 11.0 | 0.00 | 0.00 | 0.00 | ||
| 20260831145211 | 78 | 263 | 10.0 | 13.0 | 0.00 | 0.00 | 0.00 | ||
| 20260831144810 | 78 | 263 | 10.0 | 15.0 | 0.00 | 0.00 | 0.00 | ||
| 20260831144506 | 78 | 269 | 6.0 | 9.0 | 0.00 | 0.00 | 0.00 | ||
| 20260831144407 | 77 | 254 | 11.0 | 17.0 | 0.00 | 0.00 | 0.00 | ||
| 20260831144005 | 78 | 263 | 9.0 | 15.0 | 0.00 | 0.00 | 0.00 | ||
| 20260831143604 | 78 | 269 | 6.0 | 9.0 | 0.00 | 0.00 | 0.00 | ||
| 20260831143310 | 78 | 243 | 9.0 | 12.0 | 0.00 | 0.00 | 0.00 | ||
| 20260831143202 | 78 | 243 | 9.0 | 12.0 | 0.00 | 0.00 | 0.00 | ||
| 20260831142753 | 78 | 236 | 9.0 | 14.0 | 0.00 | 0.00 | 0.00 | ||
| 20260831142351 | 79 | 235 | 9.0 | 14.0 | 0.00 | 0.00 | 0.00 | ||
| 20260831141950 | 78 | 244 | 8.0 | 10.0 | 0.00 | 0.00 | 0.00 | ||
| 20260831141549 | 79 | 254 | 7.0 | 10.0 | 0.00 | 0.00 | 0.00 | ||
| 20260831141146 | 79 | 231 | 9.0 | 12.0 | 0.00 | 0.00 | 0.00 | ||
| 20260831140343 | 78 | 251 | 8.0 | 14.0 | 0.00 | 0.00 | 0.00 | ||
| 20260831135942 | 77 | 255 | 9.0 | 14.0 | 0.00 | 0.00 | 0.00 | ||
| 20260831135541 | 77 | 260 | 9.0 | 14.0 | 0.00 | 0.00 | 0.00 | ||
| 20260831135138 | 77 | 251 | 9.0 | 12.0 | 0.00 | 0.00 | 0.00 | ||
| 20260831134730 | 78 | 252 | 9.0 | 14.0 | 0.00 | 0.00 | 0.00 | ||
| 20260831134328 | 79 | 247 | 8.0 | 13.0 | 0.00 | 0.00 | 0.00 | ||
| 20260831133928 | 78 | 250 | 10.0 | 13.0 | 0.00 | 0.00 | 0.00 | ||
| 20260831133525 | 78 | 259 | 9.0 | 17.0 | 0.00 | 0.00 | 0.00 | ||
| 20260831133124 | 77 | 258 | 9.0 | 14.0 | 0.00 | 0.00 | 0.00 | ||
| 20260831132723 | 77 | 256 | 8.0 | 12.0 | 0.00 | 0.00 | 0.00 | ||
| 20260831132321 | 77 | 245 | 10.0 | 14.0 | 0.00 | 0.00 | 0.00 | ||
| 20260831131919 | 76 | 255 | 9.0 | 16.0 | 0.00 | 0.00 | 0.00 | ||
| 20260831131518 | 77 | 254 | 7.0 | 11.0 | 0.00 | 0.00 | 0.00 | ||
| 20260831131116 | 77 | 261 | 8.0 | 11.0 | 0.00 | 0.00 | 0.00 | ||
| 20260831130708 | 76 | 271 | 10.0 | 15.0 | 0.00 | 0.00 | 0.00 | ||
| 20260831130305 | 76 | 267 | 9.0 | 13.0 | 0.00 | 0.00 | 0.00 | ||
| 20260831125903 | 76 | 264 | 8.0 | 12.0 | 0.00 | 0.00 | 0.00 | ||
| 20260831125502 | 76 | 272 | 11.0 | 17.0 | 0.00 | 0.00 | 0.00 | ||
| 20260831125100 | 76 | 268 | 8.0 | 14.0 | 0.00 | 0.00 | 0.00 | ||
| 20260831124659 | 75 | 269 | 7.0 | 11.0 | 0.00 | 0.00 | 0.00 | ||
| 20260831124256 | 75 | 277 | 12.0 | 18.0 | 0.00 | 0.00 | 0.00 | ||
| 20260831123856 | 76 | 272 | 12.0 | 19.0 | 0.00 | 0.00 | 0.00 | ||
| 20260831123454 | 78 | 278 | 7.0 | 17.0 | 0.00 | 0.00 | 0.00 | ||
| 20260831123053 | 78 | 274 | 10.0 | 14.0 | 0.00 | 0.00 | 0.00 | ||
| 20260831123006 | 78 | 274 | 10.0 | 14.0 | 0.00 | 0.00 | 0.00 | ||
| 20260831122643 | 78 | 274 | 10.0 | 14.0 | 0.00 | 0.00 | 0.00 | ||
| 20260831122242 | 79 | 269 | 8.0 | 10.0 | 0.00 | 0.00 | 0.00 | ||
| 20260831121841 | 79 | 277 | 9.0 | 12.0 | 0.00 | 0.00 | 0.00 | ||
| 20260831121440 | 79 | 272 | 11.0 | 18.0 | 0.00 | 0.00 | 0.00 | ||
| 20260831121037 | 80 | 284 | 9.0 | 12.0 | 0.00 | 0.00 | 0.00 | ||
| 20260831120636 | 80 | 294 | 11.0 | 18.0 | 0.00 | 0.00 | 0.00 | ||
| 20260831120233 | 81 | 260 | 9.0 | 17.0 | 0.00 | 0.00 | 0.00 | ||
| 20260831115832 | 81 | 257 | 8.0 | 12.0 | 0.00 | 0.00 | 0.00 | ||
| 20260831115430 | 81 | 246 | 8.0 | 10.0 | 0.00 | 0.00 | 0.00 | ||
| 20260831115028 | 81 | 271 | 8.0 | 14.0 | 0.00 | 0.00 | 0.00 | ||
| 20260831114620 | 81 | 248 | 7.0 | 9.0 | 0.00 | 0.00 | 0.00 | ||
| 20260831114217 | 82 | 267 | 4.0 | 6.0 | 0.00 | 0.00 | 0.00 | ||
| 20260831113817 | 81 | 260 | 5.0 | 7.0 | 0.00 | 0.00 | 0.00 | ||
| 20260831113414 | 82 | 306 | 3.0 | 5.0 | 0.00 | 0.00 | 0.00 | ||
| 20260831113012 | 81 | 299 | 3.0 | 5.0 | 0.00 | 0.00 | 0.00 | ||
| 20260831112612 | 81 | 344 | 3.0 | 5.0 | 0.00 | 0.00 | 0.00 | ||
| 20260831112210 | 81 | 315 | 2.0 | 4.0 | 0.00 | 0.00 | 0.00 | ||
| 20260831111808 | 81 | 305 | 3.0 | 5.0 | 0.00 | 0.00 | 0.00 | ||
| 20260831111407 | 80 | 308 | 5.0 | 7.0 | 0.00 | 0.00 | 0.00 | ||
| 20260831111004 | 81 | 333 | 3.0 | 6.0 | 0.00 | 0.00 | 0.00 | ||
| 20260831110556 | 80 | 321 | 4.0 | 6.0 | 0.00 | 0.00 | 0.00 | ||
| 20260831110153 | 81 | 326 | 4.0 | 6.0 | 0.00 | 0.00 | 0.00 | ||
| 20260831105752 | 82 | 157 | 3.0 | 5.0 | 0.00 | 0.00 | 0.00 | ||
| 20260831105352 | 83 | 157 | 1.0 | 2.0 | 0.00 | 0.00 | 0.00 | ||
| 20260831104950 | 82 | 157 | 3.0 | 4.0 | 0.00 | 0.00 | 0.00 | ||
| 20260831104548 | 82 | 157 | 2.0 | 3.0 | 0.00 | 0.00 | 0.00 | ||
| 20260831104146 | 82 | 157 | 4.0 | 6.0 | 0.00 | 0.00 | 0.00 | ||
| 20260831103820 | 82 | 157 | 4.0 | 7.0 | 0.00 | 0.00 | 0.00 | ||
| 20260831103745 | 82 | 157 | 4.0 | 7.0 | 0.00 | 0.00 | 0.00 | ||
| 20260831103344 | 82 | 157 | 5.0 | 7.0 | 0.00 | 0.00 | 0.00 | ||
| 20260831102533 | 81 | 195 | 6.0 | 8.0 | 0.00 | 0.00 | 0.00 | ||
| 20260831102131 | 81 | 197 | 6.0 | 9.0 | 0.00 | 0.00 | 0.00 | ||
| 20260831101730 | 81 | 205 | 5.0 | 9.0 | 0.00 | 0.00 | 0.00 | ||
| 20260831101329 | 81 | 207 | 4.0 | 8.0 | 0.00 | 0.00 | 0.00 | ||
| 20260831100926 | 81 | 194 | 8.0 | 13.0 | 0.00 | 0.00 | 0.00 | ||
| 20260831100525 | 82 | 174 | 5.0 | 10.0 | 0.00 | 0.00 | 0.00 | ||
| 20260831100123 | 81 | 196 | 5.0 | 9.0 | 0.00 | 0.00 | 0.00 | ||
| 20260831095722 | 82 | 157 | 2.0 | 4.0 | 0.00 | 0.00 | 0.00 | ||
| 20260831095320 | 82 | 135 | 0.0 | 2.0 | 0.00 | 0.00 | 0.00 | ||
| 20260831094918 | 81 | 135 | 3.0 | 5.0 | 0.00 | 0.00 | 0.00 | ||
| 20260831094510 | 82 | 135 | 3.0 | 4.0 | 0.00 | 0.00 | 0.00 | ||
| 20260831094108 | 82 | 135 | 2.0 | 4.0 | 0.00 | 0.00 | 0.00 | ||
| 20260831093706 | 81 | 135 | 3.0 | 7.0 | 0.00 | 0.00 | 0.00 | ||
| 20260831093305 | 81 | 135 | 3.0 | 6.0 | 0.00 | 0.00 | 0.00 | ||
| 20260831092502 | 81 | 135 | 6.0 | 10.0 | 0.00 | 0.00 | 0.00 | ||
| 20260831092100 | 81 | 130 | 4.0 | 6.0 | 0.00 | 0.00 | 0.00 | ||
| 20260831091658 | 82 | 135 | 5.0 | 8.0 | 0.00 | 0.00 | 0.00 | ||
| 20260831091257 | 82 | 132 | 5.0 | 7.0 | 0.00 | 0.00 | 0.00 | ||
| 20260831090855 | 82 | 135 | 4.0 | 7.0 | 0.00 | 0.00 | 0.00 | ||
| 20260831090447 | 82 | 132 | 5.0 | 8.0 | 0.00 | 0.00 | 0.00 | ||
| 20260831090044 | 82 | 132 | 5.0 | 8.0 | 0.00 | 0.00 | 0.00 | ||
| 20260831085643 | 82 | 140 | 5.0 | 8.0 | 0.00 | 0.00 | 0.00 | ||
| 20260831085242 | 82 | 144 | 5.0 | 9.0 | 0.00 | 0.00 | 0.00 | ||
| 20260831084840 | 83 | 137 | 4.0 | 8.0 | 0.00 | 0.00 | 0.00 | ||
| 20260831084438 | 82 | 138 | 5.0 | 10.0 | 0.00 | 0.00 | 0.00 | ||
| 20260831084036 | 82 | 136 | 5.0 | 8.0 | 0.00 | 0.00 | 0.00 | ||
| 20260831083635 | 81 | 142 | 7.0 | 12.0 | 0.00 | 0.00 | 0.00 | ||
| 20260831083234 | 81 | 131 | 5.0 | 9.0 | 0.00 | 0.00 | 0.00 | ||
| 20260831082831 | 81 | 135 | 5.0 | 10.0 | 0.00 | 0.00 | 0.00 | ||
| 20260831082423 | 81 | 135 | 5.0 | 6.0 | 0.00 | 0.00 | 0.00 | ||
| 20260831082021 | 80 | 135 | 4.0 | 7.0 | 0.00 | 0.00 | 0.00 | ||
| 20260831081620 | 80 | 131 | 4.0 | 8.0 | 0.00 | 0.00 | 0.00 | ||
| 20260831081219 | 80 | 135 | 4.0 | 7.0 | 0.00 | 0.00 | 0.00 | ||
| 20260831080816 | 80 | 133 | 7.0 | 10.0 | 0.00 | 0.00 | 0.00 | ||
| 20260831080415 | 80 | 133 | 7.0 | 12.0 | 0.00 | 0.00 | 0.00 | ||
| 20260831080013 | 80 | 140 | 6.0 | 9.0 | 0.00 | 0.00 | 0.00 | ||
| 20260831075613 | 80 | 143 | 6.0 | 9.0 | 0.00 | 0.00 | 0.00 | ||
| 20260831075210 | 80 | 137 | 7.0 | 10.0 | 0.00 | 0.00 | 0.00 | ||
| 20260831074809 | 80 | 126 | 6.0 | 10.0 | 0.00 | 0.00 | 0.00 | ||
| 20260831074401 | 80 | 127 | 7.0 | 10.0 | 0.00 | 0.00 | 0.00 | ||
| 20260831073959 | 80 | 138 | 8.0 | 14.0 | 0.00 | 0.00 | 0.00 | ||
| 20260831073557 | 80 | 129 | 8.0 | 11.0 | 0.00 | 0.00 | 0.00 | ||
| 20260831073156 | 80 | 140 | 7.0 | 12.0 | 0.00 | 0.00 | 0.00 | ||
| 20260831072754 | 80 | 134 | 6.0 | 10.0 | 0.00 | 0.00 | 0.00 | ||
| 20260831072353 | 79 | 118 | 5.0 | 8.0 | 0.00 | 0.00 | 0.00 | ||
| 20260831071950 | 79 | 134 | 6.0 | 11.0 | 0.00 | 0.00 | 0.00 | ||
| 20260831071549 | 78 | 153 | 8.0 | 11.0 | 0.00 | 0.00 | 0.00 | ||
| 20260831071148 | 78 | 139 | 5.0 | 10.0 | 0.00 | 0.00 | 0.00 | ||
| 20260831070746 | 77 | 138 | 8.0 | 10.0 | 0.00 | 0.00 | 0.00 | ||
| 20260831070338 | 77 | 150 | 7.0 | 11.0 | 0.00 | 0.00 | 0.00 | ||
| 20260831065935 | 78 | 137 | 6.0 | 9.0 | 0.00 | 0.00 | 0.00 | ||
| 20260831065534 | 78 | 133 | 6.0 | 10.0 | 0.00 | 0.00 | 0.00 | ||
| 20260831065133 | 78 | 140 | 6.0 | 10.0 | 0.00 | 0.00 | 0.00 | ||
| 20260831064731 | 78 | 139 | 7.0 | 10.0 | 0.00 | 0.00 | 0.00 | ||
| 20260831064329 | 76 | 137 | 8.0 | 10.0 | 0.00 | 0.00 | 0.00 | ||
| 20260831063927 | 76 | 139 | 7.0 | 13.0 | 0.00 | 0.00 | 0.00 | ||
| 20260831063526 | 76 | 137 | 8.0 | 12.0 | 0.00 | 0.00 | 0.00 | ||
| 20260831063125 | 76 | 133 | 5.0 | 9.0 | 0.00 | 0.00 | 0.00 | ||
| 20260831062722 | 76 | 139 | 5.0 | 10.0 | 0.00 | 0.00 | 0.00 | ||
| 20260831062400 | 76 | 137 | 6.0 | 9.0 | 0.00 | 0.00 | 0.00 | ||
| 20260831062314 | 76 | 137 | 6.0 | 9.0 | 0.00 | 0.00 | 0.00 | ||
| 20260831061912 | 77 | 135 | 3.0 | 5.0 | 0.00 | 0.00 | 0.00 | ||
| 20260831061511 | 76 | 130 | 3.0 | 5.0 | 0.00 | 0.00 | 0.00 | ||
| 20260831061109 | 75 | 112 | 4.0 | 6.0 | 0.00 | 0.00 | 0.00 | ||
| 20260831060707 | 75 | 133 | 3.0 | 5.0 | 0.00 | 0.00 | 0.00 | ||
| 20260831060306 | 74 | 135 | 4.0 | 6.0 | 0.00 | 0.00 | 0.00 | ||
| 20260831055904 | 74 | 133 | 4.0 | 8.0 | 0.00 | 0.00 | 0.00 | ||
| 20260831055503 | 74 | 135 | 4.0 | 6.0 | 0.00 | 0.00 | 0.00 | ||
| 20260831055100 | 74 | 135 | 5.0 | 7.0 | 0.00 | 0.00 | 0.00 | ||
| 20260831054659 | 73 | 143 | 4.0 | 8.0 | 0.00 | 0.00 | 0.00 | ||
| 20260831054251 | 73 | 137 | 5.0 | 8.0 | 0.00 | 0.00 | 0.00 | ||
| 20260831053849 | 73 | 135 | 3.0 | 6.0 | 0.00 | 0.00 | 0.00 | ||
| 20260831053447 | 72 | 135 | 4.0 | 7.0 | 0.00 | 0.00 | 0.00 | ||
| 20260831052644 | 71 | 135 | 0.0 | 2.0 | 0.00 | 0.00 | 0.00 | ||
| 20260831052243 | 71 | 124 | 2.0 | 6.0 | 0.00 | 0.00 | 0.00 | ||
| 20260831051840 | 72 | 135 | 2.0 | 4.0 | 0.00 | 0.00 | 0.00 | ||
| 20260831051438 | 72 | 133 | 4.0 | 7.0 | 0.00 | 0.00 | 0.00 | ||
| 20260831051037 | 73 | 135 | 3.0 | 6.0 | 0.00 | 0.00 | 0.00 | ||
| 20260831050635 | 72 | 135 | 2.0 | 4.0 | 0.00 | 0.00 | 0.00 | ||
| 20260831050225 | 72 | 111 | 1.0 | 3.0 | 0.00 | 0.00 | 0.00 | ||
| 20260831045824 | 70 | 111 | 1.0 | 2.0 | 0.00 | 0.00 | 0.00 | ||
| 20260831045423 | 70 | 111 | 2.0 | 2.0 | 0.00 | 0.00 | 0.00 | ||
| 20260831045022 | 70 | 111 | 2.0 | 3.0 | 0.00 | 0.00 | 0.00 | ||
| 20260831044620 | 70 | 129 | 3.0 | 6.0 | 0.00 | 0.00 | 0.00 | ||
| 20260831044218 | 70 | 115 | 3.0 | 6.0 | 0.00 | 0.00 | 0.00 | ||
| 20260831043815 | 70 | 121 | 5.0 | 8.0 | 0.00 | 0.00 | 0.00 | ||
| 20260831043414 | 69 | 131 | 4.0 | 6.0 | 0.00 | 0.00 | 0.00 | ||
| 20260831043013 | 68 | 152 | 3.0 | 6.0 | 0.00 | 0.00 | 0.00 | ||
| 20260831042610 | 67 | 157 | 2.0 | 4.0 | 0.00 | 0.00 | 0.00 | ||
| 20260831042202 | 68 | 157 | 3.0 | 5.0 | 0.00 | 0.00 | 0.00 | ||
| 20260831041801 | 68 | 157 | 3.0 | 6.0 | 0.00 | 0.00 | 0.00 | ||
| 20260831041400 | 68 | 157 | 4.0 | 5.0 | 0.00 | 0.00 | 0.00 | ||
| 20260831040957 | 67 | 157 | 3.0 | 5.0 | 0.00 | 0.00 | 0.00 | ||
| 20260831040556 | 67 | 157 | 3.0 | 5.0 | 0.00 | 0.00 | 0.00 | ||
| 20260831040155 | 68 | 157 | 3.0 | 6.0 | 0.00 | 0.00 | 0.00 | ||
| 20260831035753 | 68 | 157 | 3.0 | 4.0 | 0.00 | 0.00 | 0.00 | ||
| 20260831035351 | 67 | 157 | 3.0 | 4.0 | 0.00 | 0.00 | 0.00 | ||
| 20260831034950 | 67 | 157 | 3.0 | 4.0 | 0.00 | 0.00 | 0.00 | ||
| 20260831034548 | 68 | 157 | 4.0 | 5.0 | 0.00 | 0.00 | 0.00 | ||
| 20260831034140 | 68 | 157 | 3.0 | 5.0 | 0.00 | 0.00 | 0.00 | ||
| 20260831033738 | 68 | 157 | 3.0 | 5.0 | 0.00 | 0.00 | 0.00 | ||
| 20260831033336 | 68 | 157 | 5.0 | 8.0 | 0.00 | 0.00 | 0.00 | ||
| 20260831032935 | 68 | 157 | 6.0 | 8.0 | 0.00 | 0.00 | 0.00 | ||
| 20260831032533 | 68 | 156 | 5.0 | 9.0 | 0.00 | 0.00 | 0.00 | ||
| 20260831032132 | 69 | 157 | 5.0 | 8.0 | 0.00 | 0.00 | 0.00 | ||
| 20260831031729 | 69 | 158 | 5.0 | 8.0 | 0.00 | 0.00 | 0.00 | ||
| 20260831031328 | 68 | 156 | 5.0 | 9.0 | 0.00 | 0.00 | 0.00 | ||
| 20260831030926 | 68 | 157 | 5.0 | 8.0 | 0.00 | 0.00 | 0.00 | ||
| 20260831030524 | 68 | 158 | 5.0 | 8.0 | 0.00 | 0.00 | 0.00 | ||
| 20260831030115 | 68 | 158 | 5.0 | 7.0 | 0.00 | 0.00 | 0.00 | ||
| 20260831025713 | 68 | 154 | 5.0 | 8.0 | 0.00 | 0.00 | 0.00 | ||
| 20260831025312 | 68 | 157 | 4.0 | 6.0 | 0.00 | 0.00 | 0.00 | ||
| 20260831024911 | 68 | 157 | 4.0 | 6.0 | 0.00 | 0.00 | 0.00 | ||
| 20260831024508 | 68 | 157 | 4.0 | 5.0 | 0.00 | 0.00 | 0.00 | ||
| 20260831024107 | 68 | 157 | 3.0 | 4.0 | 0.00 | 0.00 | 0.00 | ||
| 20260831023705 | 68 | 157 | 3.0 | 4.0 | 0.00 | 0.00 | 0.00 | ||
| 20260831023304 | 68 | 157 | 3.0 | 4.0 | 0.00 | 0.00 | 0.00 | ||
| 20260831022903 | 68 | 157 | 4.0 | 5.0 | 0.00 | 0.00 | 0.00 | ||
| 20260831022500 | 68 | 157 | 3.0 | 4.0 | 0.00 | 0.00 | 0.00 | ||
| 20260831022052 | 69 | 157 | 4.0 | 5.0 | 0.00 | 0.00 | 0.00 | ||
| 20260831021650 | 69 | 157 | 4.0 | 7.0 | 0.00 | 0.00 | 0.00 | ||
| 20260831021249 | 69 | 159 | 5.0 | 8.0 | 0.00 | 0.00 | 0.00 | ||
| 20260831020847 | 68 | 154 | 5.0 | 9.0 | 0.00 | 0.00 | 0.00 | ||
| 20260831020445 | 69 | 166 | 4.0 | 6.0 | 0.00 | 0.00 | 0.00 | ||
| 20260831020044 | 68 | 165 | 5.0 | 7.0 | 0.00 | 0.00 | 0.00 | ||
| 20260831015642 | 68 | 157 | 5.0 | 7.0 | 0.00 | 0.00 | 0.00 | ||
| 20260831015240 | 69 | 157 | 4.0 | 6.0 | 0.00 | 0.00 | 0.00 | ||
| 20260831014839 | 68 | 157 | 4.0 | 6.0 | 0.00 | 0.00 | 0.00 | ||
| 20260831014437 | 69 | 157 | 5.0 | 6.0 | 0.00 | 0.00 | 0.00 | ||
| 20260831014030 | 69 | 152 | 5.0 | 8.0 | 0.00 | 0.00 | 0.00 | ||
| 20260831013627 | 68 | 152 | 5.0 | 8.0 | 0.00 | 0.00 | 0.00 | ||
| 20260831013226 | 69 | 157 | 4.0 | 6.0 | 0.00 | 0.00 | 0.00 | ||
| 20260831012825 | 69 | 148 | 4.0 | 6.0 | 0.00 | 0.00 | 0.00 | ||
| 20260831012423 | 69 | 148 | 6.0 | 9.0 | 0.00 | 0.00 | 0.00 | ||
| 20260831012022 | 69 | 145 | 6.0 | 8.0 | 0.00 | 0.00 | 0.00 | ||
| 20260831011619 | 69 | 148 | 5.0 | 8.0 | 0.00 | 0.00 | 0.00 | ||
| 20260831011218 | 69 | 141 | 5.0 | 9.0 | 0.00 | 0.00 | 0.00 | ||
| 20260831010817 | 69 | 150 | 5.0 | 8.0 | 0.00 | 0.00 | 0.00 | ||
| 20260831010415 | 69 | 150 | 6.0 | 9.0 | 0.00 | 0.00 | 0.00 | ||
| 20260831010006 | 69 | 154 | 4.0 | 8.0 | 0.00 | 0.00 | 0.00 | ||
| 20260831005604 | 69 | 157 | 5.0 | 9.0 | 0.00 | 0.00 | 0.00 | ||
| 20260831005203 | 69 | 157 | 4.0 | 6.0 | 0.00 | 0.00 | 0.00 | ||
| 20260831004802 | 69 | 157 | 4.0 | 6.0 | 0.00 | 0.00 | 0.00 | ||
| 20260831004359 | 69 | 151 | 5.0 | 6.0 | 0.00 | 0.00 | 0.00 | ||
| 20260831003958 | 69 | 135 | 4.0 | 6.0 | 0.00 | 0.00 | 0.00 | ||
| 20260831003556 | 69 | 139 | 4.0 | 6.0 | 0.00 | 0.00 | 0.00 | ||
| 20260831003155 | 69 | 153 | 5.0 | 9.0 | 0.00 | 0.00 | 0.00 | ||
| 20260831002753 | 69 | 157 | 4.0 | 7.0 | 0.00 | 0.00 | 0.00 | ||
| 20260831002351 | 69 | 152 | 5.0 | 7.0 | 0.00 | 0.00 | 0.00 | ||
| 20260831001943 | 69 | 156 | 5.0 | 8.0 | 0.00 | 0.00 | 0.00 | ||
| 20260831001541 | 69 | 156 | 5.0 | 7.0 | 0.00 | 0.00 | 0.00 | ||
| 20260831001141 | 69 | 157 | 4.0 | 5.0 | 0.00 | 0.00 | 0.00 | ||
| 20260831000738 | 69 | 148 | 3.0 | 5.0 | 0.00 | 0.00 | 0.00 | ||
| 20260831000336 | 69 | 157 | 3.0 | 5.0 | 0.00 | 0.00 | 0.00 | ||
| 20260830235936 | 69 | 157 | 3.0 | 6.0 | 0.00 | 0.00 | 0.00 | ||
| 20260830235534 | 70 | 157 | 5.0 | 6.0 | 0.00 | 0.00 | 0.00 | ||
| 20260830235132 | 69 | 146 | 4.0 | 6.0 | 0.00 | 0.00 | 0.00 | ||
| 20260830234731 | 70 | 135 | 3.0 | 4.0 | 0.00 | 0.00 | 0.00 | ||
| 20260830234328 | 70 | 157 | 4.0 | 6.0 | 0.00 | 0.00 | 0.00 | ||
| 20260830233920 | 70 | 135 | 4.0 | 5.0 | 0.00 | 0.00 | 0.00 | ||
| 20260830233517 | 70 | 135 | 3.0 | 5.0 | 0.00 | 0.00 | 0.00 | ||
| 20260830233116 | 71 | 135 | 3.0 | 5.0 | 0.00 | 0.00 | 0.00 | ||
| 20260830232716 | 70 | 157 | 4.0 | 6.0 | 0.00 | 0.00 | 0.00 | ||
| 20260830232313 | 71 | 137 | 4.0 | 7.0 | 0.00 | 0.00 | 0.00 | ||
| 20260830231911 | 71 | 141 | 3.0 | 4.0 | 0.00 | 0.00 | 0.00 | ||
| 20260830231509 | 71 | 135 | 3.0 | 4.0 | 0.00 | 0.00 | 0.00 | ||
| 20260830231108 | 71 | 141 | 3.0 | 6.0 | 0.00 | 0.00 | 0.00 | ||
| 20260830230707 | 71 | 135 | 2.0 | 4.0 | 0.00 | 0.00 | 0.00 | ||
| 20260830230305 | 71 | 135 | 2.0 | 4.0 | 0.00 | 0.00 | 0.00 | ||
| 20260830225856 | 71 | 135 | 2.0 | 3.0 | 0.00 | 0.00 | 0.00 | ||
| 20260830225454 | 70 | 135 | 2.0 | 4.0 | 0.00 | 0.00 | 0.00 | ||
| 20260830225053 | 70 | 135 | 1.0 | 2.0 | 0.00 | 0.00 | 0.00 | ||
| 20260830224652 | 70 | 135 | 1.0 | 2.0 | 0.00 | 0.00 | 0.00 | ||
| 20260830224249 | 71 | 135 | 1.0 | 3.0 | 0.00 | 0.00 | 0.00 | ||
| 20260830223848 | 70 | 135 | 2.0 | 2.0 | 0.00 | 0.00 | 0.00 | ||
| 20260830223446 | 70 | 135 | 2.0 | 3.0 | 0.00 | 0.00 | 0.00 | ||
| 20260830223045 | 69 | 135 | 3.0 | 4.0 | 0.00 | 0.00 | 0.00 | ||
| 20260830222241 | 70 | 157 | 2.0 | 4.0 | 0.00 | 0.00 | 0.00 | ||
| 20260830221833 | 69 | 157 | 2.0 | 3.0 | 0.00 | 0.00 | 0.00 | ||
| 20260830221431 | 69 | 157 | 2.0 | 3.0 | 0.00 | 0.00 | 0.00 | ||
| 20260830221029 | 69 | 157 | 2.0 | 3.0 | 0.00 | 0.00 | 0.00 | ||
| 20260830220628 | 70 | 172 | 2.0 | 3.0 | 0.00 | 0.00 | 0.00 | ||
| 20260830220226 | 71 | 202 | 2.0 | 4.0 | 0.00 | 0.00 | 0.00 | ||
| 20260830215825 | 70 | 220 | 3.0 | 6.0 | 0.00 | 0.00 | 0.00 | ||
| 20260830215423 | 69 | 265 | 4.0 | 5.0 | 0.00 | 0.00 | 0.00 | ||
| 20260830215021 | 68 | 270 | 4.0 | 5.0 | 0.00 | 0.00 | 0.00 | ||
| 20260830214620 | 69 | 256 | 4.0 | 5.0 | 0.00 | 0.00 | 0.00 | ||
| 20260830214218 | 68 | 269 | 5.0 | 8.0 | 0.00 | 0.00 | 0.00 | ||
| 20260830213810 | 69 | 297 | 5.0 | 7.0 | 0.00 | 0.00 | 0.00 | ||
| 20260830213407 | 73 | 166 | 2.0 | 5.0 | 0.00 | 0.00 | 0.00 | ||
| 20260830213006 | 72 | 135 | 4.0 | 6.0 | 0.00 | 0.00 | 0.00 | ||
| 20260830212605 | 72 | 135 | 4.0 | 8.0 | 0.00 | 0.00 | 0.00 | ||
| 20260830212203 | 73 | 135 | 6.0 | 9.0 | 0.00 | 0.00 | 0.00 | ||
| 20260830211801 | 73 | 135 | 5.0 | 7.0 | 0.00 | 0.00 | 0.00 | ||
| 20260830211400 | 73 | 143 | 6.0 | 9.0 | 0.00 | 0.00 | 0.00 | ||
| 20260830210558 | 73 | 143 | 6.0 | 10.0 | 0.00 | 0.00 | 0.00 | ||
| 20260830210155 | 73 | 140 | 6.0 | 8.0 | 0.00 | 0.00 | 0.00 | ||
| 20260830205747 | 73 | 146 | 6.0 | 9.0 | 0.00 | 0.00 | 0.00 | ||
| 20260830205345 | 73 | 145 | 5.0 | 7.0 | 0.00 | 0.00 | 0.00 | ||
| 20260830204944 | 72 | 150 | 5.0 | 8.0 | 0.00 | 0.00 | 0.00 | ||
| 20260830204543 | 72 | 156 | 5.0 | 7.0 | 0.00 | 0.00 | 0.00 | ||
| 20260830204140 | 72 | 148 | 4.0 | 7.0 | 0.00 | 0.00 | 0.00 | ||
| 20260830203739 | 73 | 135 | 4.0 | 6.0 | 0.00 | 0.00 | 0.00 | ||
| 20260830203337 | 73 | 137 | 4.0 | 6.0 | 0.00 | 0.00 | 0.00 | ||
| 20260830202936 | 73 | 138 | 5.0 | 7.0 | 0.00 | 0.00 | 0.00 | ||
| 20260830202534 | 73 | 153 | 5.0 | 7.0 | 0.00 | 0.00 | 0.00 | ||
| 20260830202132 | 73 | 139 | 4.0 | 7.0 | 0.00 | 0.00 | 0.00 | ||
| 20260830201724 | 73 | 135 | 4.0 | 7.0 | 0.00 | 0.00 | 0.00 | ||
| 20260830201322 | 73 | 151 | 4.0 | 6.0 | 0.00 | 0.00 | 0.00 | ||
| 20260830200920 | 73 | 135 | 4.0 | 6.0 | 0.00 | 0.00 | 0.00 |